Location: Central Coast
(33.3208°S, 151.2336°E)
Time: 07:58:22
(UTC+11:00)

OTV 5 (USA 277) - Visible Passes

Search period start: 12 December 2017 00:00
Search period end: 22 December 2017 00:00
Orbit: 404 x 417 km, 43.0° (Epoch: 07 September)

Date Brightness Start Highest point End Pass type
(mag) Time Alt. Az. Time Alt. Az. Time Alt. Az.
12 Dec ? 03:13:39 40° SSE 03:13:39 40° SSE 03:16:03 10° SE visible
12 Dec ? 04:48:06 10° WSW 04:50:30 18° S 04:52:56 10° SE visible
13 Dec ? 02:24:40 12° ESE 02:24:40 12° ESE 02:25:01 10° ESE visible
13 Dec ? 03:57:24 14° WSW 03:59:17 22° SSW 04:01:57 10° SE visible
14 Dec ? 03:08:24 27° S 03:08:24 27° S 03:11:01 10° SE visible
14 Dec ? 04:44:00 10° SW 04:46:06 15° S 04:48:13 10° SE visible
15 Dec ? 02:19:23 15° SE 02:19:23 15° SE 02:20:04 10° SE visible
15 Dec ? 03:52:36 10° SW 03:54:50 16° S 03:57:03 10° SE visible
16 Dec ? 03:03:07 18° SSW 03:03:34 18° S 03:06:00 10° SE visible
16 Dec ? 04:39:27 10° SW 04:41:42 17° S 04:43:59 10° SE visible
17 Dec ? 02:14:08 15° SSE 02:14:08 15° SSE 02:15:01 10° SE visible
17 Dec ? 03:48:18 10° SW 03:50:26 16° S 03:52:34 10° SE visible
18 Dec ? 02:57:56 13° SSW 02:59:10 15° S 03:01:16 10° SE visible
18 Dec ? 04:34:29 10° SW 04:37:15 23° SSE 04:40:00 10° ESE visible
19 Dec ? 02:09:07 14° SSE 02:09:07 14° SSE 02:10:07 10° SE visible
19 Dec ? 03:43:31 10° SW 03:46:02 19° SSE 03:48:31 10° ESE visible
20 Dec ? 02:53:14 13° SSW 02:54:46 17° S 02:57:03 10° SE visible
20 Dec ? 04:29:26 10° SW 04:32:39 42° SSE 04:35:51 10° E visible
21 Dec ? 02:04:57 13° SSE 02:04:57 13° SSE 02:05:39 10° SE visible
21 Dec ? 03:38:28 10° SW 03:41:30 30° SSE 03:44:31 10° E visible
21 Dec ? 21:53:24 10° NW 21:54:18 17° NW 21:54:18 17° NW visible
